Weather History for Hot Springs, VA

Change the Weather History Date:

Saturday, February 12, 2011

  Actual Average Record
Temperature  
Mean Temperature 26 °F -  
Max Temperature 32 °F 35 °F 57 °F (1999)
Min Temperature 19 °F 21 °F 3 °F (2012)
Degree Days  
Heating Degree Days 40    
Moisture  
Dew Point 12 °F    
Average Humidity 57    
Maximum Humidity 86    
Minimum Humidity 31    
Precipitation  
Precipitation 0.00 in - - ()
Sea Level Pressure  
Sea Level Pressure 29.96 in    
Wind  
Wind Speed 22 mph (West)    
Max Wind Speed 37 mph    
Max Gust Speed 48 mph    
Visibility 10 miles    
Events      
Averages and records for this station are not official NWS values.
T = Trace of Precipitation, MM = Missing Value Source: NWS Daily Summary

Daily Weather History Graph

Daily Weather History Graph

Search for Another Location

Airport:

Trip Planner

Search our weather history database for the weather conditions in past years. The results will help you decide how hot, cold, wet, or windy it might be!

Date:

Astronomy

Feb. 12, 2011 Rise Set
Actual Time 7:13 AM EST 5:54 PM EST
Civil Twilight 6:45 AM EST 6:21 PM EST
Nautical Twilight 6:15 AM EST 6:52 PM EST
Astronomical Twilight 5:44 AM EST 7:23 PM EST
Moon 12:01 PM EST (2/12) 2:18 AM EST (2/12)
Length of Visible Light 11h 35m
Length of Day
10h 41m
Waxing Gibbous, 64% of the Moon is Illuminated
Feb 12
Waxing Gibbous
Feb 18
Full
Feb 24
Last Quarter
Mar 4
New
Mar 12
First Quarter

Hourly Weather History & Observations

Time (EST) Temp. Windchill Dew Point Humidity Pressure Visibility Wind Dir Wind Speed Gust Speed Precip Events Conditions
12:00 AM 24.8 °F 10.3 °F -2.2 °F 31% 29.95 in 10.0 mi West 20.7 mph 25.3 mph N/A   Clear
12:20 AM 24.8 °F 11.1 °F -2.2 °F 31% 29.94 in 10.0 mi West 18.4 mph - N/A   Clear
12:40 AM 23.0 °F 8.7 °F -2.2 °F 33% 29.94 in 10.0 mi West 18.4 mph 24.2 mph N/A   Clear
1:20 AM 23.0 °F 9.6 °F -2.2 °F 33% 29.93 in 10.0 mi West 16.1 mph 21.9 mph N/A   Clear
1:40 AM 23.0 °F 9.6 °F -2.2 °F 33% 29.92 in 10.0 mi West 16.1 mph 23.0 mph N/A   Clear
2:00 AM 21.2 °F 6.4 °F -2.2 °F 36% 29.91 in 10.0 mi West 18.4 mph 24.2 mph N/A   Clear
2:20 AM 21.2 °F 4.9 °F -2.2 °F 36% 29.91 in 10.0 mi West 23.0 mph 29.9 mph N/A   Clear
2:40 AM 21.2 °F 5.6 °F -2.2 °F 36% 29.90 in 10.0 mi West 20.7 mph 29.9 mph N/A   Clear
3:00 AM 21.2 °F 5.2 °F -2.2 °F 36% 29.90 in 10.0 mi West 21.9 mph 28.8 mph N/A   Clear
3:20 AM 21.2 °F 6.0 °F -2.2 °F 36% 29.89 in 10.0 mi West 19.6 mph 28.8 mph N/A   Clear
3:40 AM 21.2 °F 4.9 °F -2.2 °F 36% 29.89 in 10.0 mi West 23.0 mph 32.2 mph N/A   Clear
4:00 AM 21.2 °F 4.2 °F -2.2 °F 36% 29.88 in 10.0 mi West 25.3 mph 34.5 mph N/A   Clear
4:20 AM 21.2 °F 4.9 °F -0.4 °F 39% 29.88 in 10.0 mi West 23.0 mph 32.2 mph N/A   Clear
4:40 AM 21.2 °F 5.2 °F -0.4 °F 39% 29.88 in 10.0 mi West 21.9 mph 31.1 mph N/A   Clear
5:00 AM 19.4 °F 2.8 °F -0.4 °F 42% 29.88 in 10.0 mi West 21.9 mph 32.2 mph N/A   Clear
5:20 AM 21.2 °F 4.2 °F 1.4 °F 42% 29.89 in 10.0 mi West 25.3 mph 33.4 mph N/A   Mostly Cloudy
5:40 AM 21.2 °F 4.2 °F 3.2 °F 46% 29.88 in 10.0 mi West 25.3 mph 33.4 mph N/A   Overcast
6:00 AM 21.2 °F 4.5 °F 3.2 °F 46% 29.89 in 10.0 mi West 24.2 mph 31.1 mph N/A   Overcast
6:20 AM 21.2 °F 4.2 °F 5.0 °F 50% 29.89 in 10.0 mi West 25.3 mph 31.1 mph N/A   Overcast
6:40 AM 21.2 °F 5.6 °F 6.8 °F 54% 29.90 in 10.0 mi West 20.7 mph 29.9 mph N/A   Overcast
7:00 AM 21.2 °F 4.2 °F 6.8 °F 54% 29.89 in 10.0 mi West 25.3 mph 31.1 mph N/A   Overcast
7:20 AM 21.2 °F 4.9 °F 8.6 °F 58% 29.90 in 10.0 mi West 23.0 mph 32.2 mph N/A   Overcast
7:40 AM 21.2 °F 5.6 °F 8.6 °F 58% 29.91 in 10.0 mi West 20.7 mph 31.1 mph N/A   Overcast
8:00 AM 21.2 °F 4.5 °F 8.6 °F 58% 29.91 in 10.0 mi West 24.2 mph 33.4 mph N/A   Overcast
8:20 AM 23.0 °F 7.2 °F 10.4 °F 59% 29.92 in 10.0 mi West 23.0 mph 28.8 mph N/A   Overcast
8:40 AM 23.0 °F 7.6 °F 12.2 °F 63% 29.93 in 10.0 mi West 21.9 mph 27.6 mph N/A   Overcast
9:00 AM 24.8 °F 8.7 °F 14.0 °F 64% 29.92 in 10.0 mi West 26.5 mph 34.5 mph N/A   Overcast
9:20 AM 23.0 °F 6.0 °F 15.8 °F 74% 29.92 in 10.0 mi West 27.6 mph 36.8 mph N/A   Overcast
9:40 AM 24.8 °F 8.1 °F 17.6 °F 74% 29.91 in 10.0 mi West 28.8 mph 36.8 mph N/A   Overcast
10:00 AM 24.8 °F 7.9 °F 17.6 °F 74% 29.91 in 10.0 mi West 29.9 mph 36.8 mph N/A   Overcast
10:20 AM 24.8 °F 8.1 °F 19.4 °F 80% 29.91 in 10.0 mi WNW 28.8 mph 43.7 mph N/A   Overcast
10:40 AM 24.8 °F 7.9 °F 21.2 °F 86% 29.92 in 10.0 mi West 29.9 mph 40.3 mph N/A   Overcast
11:00 AM 26.6 °F 8.9 °F 21.2 °F 80% 29.92 in 10.0 mi West 36.8 mph 48.3 mph N/A   Overcast
11:20 AM 28.4 °F 13.0 °F 21.2 °F 74% 29.93 in 10.0 mi WNW 28.8 mph 42.6 mph N/A   Overcast
11:40 AM 28.4 °F 12.7 °F 21.2 °F 74% 29.93 in 10.0 mi West 29.9 mph 41.4 mph N/A   Mostly Cloudy
12:00 PM 28.4 °F 14.7 °F 21.2 °F 74% 29.95 in 10.0 mi WNW 21.9 mph 33.4 mph N/A   Mostly Cloudy
12:20 PM 30.2 °F 16.2 °F 19.4 °F 64% 29.94 in 10.0 mi West 25.3 mph 33.4 mph N/A   Scattered Clouds
12:40 PM 30.2 °F 16.8 °F 19.4 °F 64% 29.94 in 10.0 mi West 23.0 mph 35.7 mph N/A   Scattered Clouds
1:00 PM 30.2 °F 16.5 °F 19.4 °F 64% 29.94 in 10.0 mi West 24.2 mph 36.8 mph N/A   Clear
1:20 PM 32.0 °F 18.1 °F 17.6 °F 55% 29.94 in 10.0 mi West 27.6 mph 33.4 mph N/A   Clear
1:40 PM 30.2 °F 15.7 °F 17.6 °F 60% 29.95 in 10.0 mi West 27.6 mph 36.8 mph N/A   Clear
2:00 PM 30.2 °F 17.1 °F 17.6 °F 60% 29.96 in 10.0 mi West 21.9 mph 34.5 mph N/A   Clear
2:20 PM 30.2 °F 16.5 °F 17.6 °F 60% 29.96 in 10.0 mi West 24.2 mph 36.8 mph N/A   Clear
2:40 PM 30.2 °F 15.7 °F 17.6 °F 60% 29.97 in 10.0 mi West 27.6 mph 39.1 mph N/A   Clear
3:00 PM 30.2 °F 16.2 °F 17.6 °F 60% 29.97 in 10.0 mi West 25.3 mph 33.4 mph N/A   Clear
3:20 PM 30.2 °F 17.8 °F 17.6 °F 60% 29.98 in 10.0 mi West 19.6 mph 33.4 mph N/A   Clear
3:40 PM 32.0 °F 19.2 °F 17.6 °F 55% 29.98 in 10.0 mi West 23.0 mph 33.4 mph N/A   Clear
4:00 PM 32.0 °F 19.5 °F 17.6 °F 55% 29.99 in 10.0 mi West 21.9 mph 31.1 mph N/A   Clear
4:20 PM 30.2 °F 17.1 °F 17.6 °F 60% 30.00 in 10.0 mi West 21.9 mph 28.8 mph N/A   Clear
4:40 PM 30.2 °F 16.8 °F 17.6 °F 60% 30.00 in 10.0 mi West 23.0 mph 33.4 mph N/A   Clear
5:00 PM 30.2 °F 17.4 °F 17.6 °F 60% 30.02 in 10.0 mi West 20.7 mph 29.9 mph N/A   Clear
5:20 PM 30.2 °F 16.2 °F 17.6 °F 60% 30.02 in 10.0 mi WNW 25.3 mph 31.1 mph N/A   Clear
5:40 PM 30.2 °F 18.1 °F 17.6 °F 60% 30.03 in 10.0 mi West 18.4 mph 27.6 mph N/A   Clear
6:00 PM 28.4 °F 14.4 °F 17.6 °F 64% 30.05 in 10.0 mi West 23.0 mph 29.9 mph N/A   Clear
6:20 PM 28.4 °F 14.4 °F 19.4 °F 69% 30.05 in 10.0 mi WNW 23.0 mph 32.2 mph N/A   Clear
6:40 PM 28.4 °F 15.1 °F 19.4 °F 69% 30.06 in 10.0 mi West 20.7 mph 26.5 mph N/A   Clear
7:00 PM 28.4 °F 15.8 °F 19.4 °F 69% 30.07 in 10.0 mi West 18.4 mph 29.9 mph N/A   Clear
7:20 PM 28.4 °F 14.7 °F 19.4 °F 69% 30.07 in 10.0 mi West 21.9 mph 29.9 mph N/A   Clear
7:40 PM 28.4 °F 15.1 °F 19.4 °F 69% 30.07 in 10.0 mi West 20.7 mph 27.6 mph N/A   Clear
8:00 PM 28.4 °F 15.1 °F 19.4 °F 69% 30.07 in 10.0 mi West 20.7 mph 28.8 mph N/A   Clear
8:20 PM 26.6 °F 13.1 °F 19.4 °F 74% 30.07 in 10.0 mi West 19.6 mph 27.6 mph N/A   Clear
8:40 PM 28.4 °F 14.4 °F 19.4 °F 69% 30.07 in 10.0 mi West 23.0 mph 29.9 mph N/A   Clear
9:00 PM 26.6 °F 13.4 °F 19.4 °F 74% 30.07 in 10.0 mi West 18.4 mph 26.5 mph N/A   Clear
9:20 PM 26.6 °F 12.4 °F 19.4 °F 74% 30.08 in 10.0 mi West 21.9 mph 28.8 mph N/A   Clear
9:40 PM 26.6 °F 12.7 °F 19.4 °F 74% 30.09 in 10.0 mi West 20.7 mph 28.8 mph N/A   Clear
10:00 PM 26.6 °F 12.4 °F 19.4 °F 74% 30.10 in 10.0 mi West 21.9 mph 28.8 mph N/A   Clear
10:20 PM 26.6 °F 13.1 °F 19.4 °F 74% 30.10 in 10.0 mi West 19.6 mph 27.6 mph N/A   Clear
10:40 PM 26.6 °F 13.1 °F 19.4 °F 74% 30.09 in 10.0 mi West 19.6 mph 29.9 mph N/A   Clear
11:00 PM 26.6 °F 12.4 °F 19.4 °F 74% 30.10 in 10.0 mi West 21.9 mph 29.9 mph N/A   Clear
11:20 PM 26.6 °F 12.0 °F 19.4 °F 74% 30.09 in 10.0 mi West 23.0 mph 27.6 mph N/A   Clear
11:40 PM 26.6 °F 11.7 °F 19.4 °F 74% 30.09 in 10.0 mi WNW 24.2 mph 31.1 mph N/A   Clear